Theta_e
301 297 295 299 303 306 303 301 301 303 304 300 299 299 303 305 301 300 302 303 303 305 310 315 320 322 324 326 327 327 324 325 327 326 325 324 323 324 325 326 327 326 326 327
296 294 300 304 305 304 301 299 298 301 301 299 298 298 302 305 305 305 304 304 306 307 305 311 316 319 323 324 326 327 327 325 326 326 327 326 325 326 326 326 327 327 327 327
295 298 301 302 301 300 299 297 297 297 298 296 294 292 296 301 304 305 307 308 309 308 308 306 312 318 321 323 325 327 328 327 327 326 326 325 324 324 324 325 326 327 327 328
297 302 300 300 299 301 296 302 301 296 293 288 293 283 292 296 298 302 304 302 305 307 309 310 308 314 319 322 324 327 329 329 329 327 325 323 322 321 324 326 327 327 327 328
294 298 299 297 299 302 298 302 298 295 292 291 291 286 290 295 294 298 300 302 303 304 306 307 309 313 318 321 324 325 328 329 330 329 327 325 323 324 325 327 327 327 327 328
297 302 301 300 301 302 301 298 296 292 290 284 290 289 288 292 296 297 299 300 301 302 303 305 308 307 313 317 320 324 325 327 329 330 329 327 325 325 326 327 327 328 328 327
294 296 297 300 297 298 297 292 282 282 281 281 288 287 291 296 297 296 296 297 297 297 300 301 302 304 304 313 318 322 323 324 326 328 329 328 328 327 326 327 327 327 327 327
286 284 293 297 296 294 294 292 283 278 279 281 284 282 289 298 297 297 300 298 297 296 298 297 297 300 302 305 311 319 320 323 324 326 328 330 330 329 329 328 329 329 329 328
288 287 296 297 299 297 292 290 293 283 277 279 283 288 294 296 296 295 295 296 297 298 298 301 302 298 298 301 304 310 315 317 320 323 325 327 329 329 329 329 329 329 330 329
292 284 293 291 295 294 293 295 286 287 278 275 282 283 286 291 294 296 296 296 297 297 297 297 297 298 299 298 300 302 304 306 310 316 320 324 326 328 329 329 327 328 329 326
295 289 286 290 290 289 289 289 290 291 286 279 278 283 293 294 296 295 295 294 295 295 295 296 297 298 299 300 300 300 300 301 302 304 309 316 323 325 326 327 326 327 325 326
294 288 282 287 290 295 293 291 292 286 283 285 284 283 294 293 295 294 293 295 295 294 295 296 298 298 298 299 299 300 300 301 302 302 304 307 312 316 319 324 325 326 323 318
292 286 280 282 287 290 291 293 294 292 287 283 280 284 295 296 292 294 294 294 295 295 294 296 296 297 298 298 299 300 301 301 302 302 302 304 307 310 312 315 317 316 314 313
295 288 284 280 284 286 285 291 293 292 283 283 284 288 290 291 291 292 292 292 293 294 295 295 295 296 297 299 298 299 300 302 302 301 301 301 302 305 308 308 310 311 310 308
292 284 287 287 289 289 288 290 291 290 291 286 288 288 292 292 292 293 294 293 293 294 295 295 295 295 297 298 298 299 299 301 302 300 299 299 300 301 302 303 303 303 304 305
294 283 284 281 288 287 285 289 290 290 292 291 290 288 293 295 293 292 294 294 294 294 295 296 296 296 297 297 298 299 298 299 300 299 297 297 297 296 295 297 294 293 293 293
291 284 282 277 284 282 278 285 287 290 291 291 287 292 294 292 292 293 294 294 294 295 295 295 296 296 296 297 298 297 298 299 298 296 294 292 291 291 290 291 291 290 290 290
288 286 284 279 282 274 284 290 291 289 291 292 293 293 293 294 294 295 296 295 295 296 295 296 296 296 296 298 298 298 298 297 294 292 290 288 290 290 289 289 289 288 288 288
293 287 281 279 278 281 285 286 288 287 287 292 292 293 293 294 292 293 295 296 296 295 295 295 295 296 296 296 297 296 292 292 291 290 288 287 289 287 287 287 287 287 286 286
289 290 281 280 272 274 283 289 292 291 282 292 293 293 293 292 287 289 294 294 294 294 294 294 294 295 294 294 292 291 290 289 288 288 288 287 287 288 287 286 286 285 286 285
284 283 280 276 272 278 286 288 292 280 281 289 293 293 293 290 293 292 293 293 292 292 292 292 291 290 289 288 289 289 288 288 288 288 287 286 285 287 287 286 284 285 285 285
282 281 280 274 271 275 288 288 285 289 290 288 290 292 292 292 293 291 291 291 291 290 288 287 285 285 285 286 287 287 286 287 286 283 282 281 282 283 286 286 285 285 285 285
279 285 283 285 282 288 291 291 291 294 291 289 289 290 291 292 291 291 290 289 288 287 285 284 283 283 283 283 283 283 285 283 280 279 279 279 280 285 285 285 285 284 285 285
282 286 282 282 284 286 289 289 290 292 291 291 291 290 291 290 289 287 287 285 285 284 283 281 280 281 280 280 281 281 281 281 279 280 279 279 280 282 284 285 285 285 285 284
284 286 282 281 282 286 286 290 292 290 289 288 287 288 291 289 287 286 284 282 283 283 280 280 279 279 278 278 278 277 278 278 281 279 278 279 279 279 280 283 284 283 284 286
285 285 285 281 287 288 290 291 291 289 288 287 287 286 286 287 286 284 281 280 279 279 277 277 277 277 276 276 276 276 277 276 276 277 277 277 277 276 277 280 278 285 287 288
Wind_Speed
2 6 13 17 16 11 12 12 12 6 9 6 8 9 10 10 10 10 8 8 8 7 10 11 12 11 10 11 15 15 16 16 11 9 10 8 8 6 6 5 8 8 9 8
7 16 14 13 13 12 10 12 13 5 9 3 5 12 8 9 9 10 10 10 10 8 7 9 10 10 11 12 14 15 15 15 12 10 9 7 9 7 8 7 7 8 9 10
16 8 11 15 12 14 5 6 5 5 6 0 4 11 12 11 17 11 10 10 11 10 9 9 10 12 11 13 13 15 17 18 16 15 9 6 5 4 6 6 5 7 8 8
3 8 18 17 16 13 13 7 4 9 6 3 6 6 7 6 5 15 13 9 9 10 9 9 11 11 14 14 11 14 15 16 17 17 12 14 11 11 9 9 7 7 7 7
11 13 19 18 16 16 6 7 8 5 2 5 5 3 7 7 7 9 10 11 11 10 10 11 10 13 15 14 15 12 13 13 14 15 16 12 11 10 8 9 11 12 10 11
8 11 9 10 9 7 8 11 8 6 1 6 9 7 5 6 9 7 6 8 8 9 10 10 10 10 9 9 10 11 11 14 14 14 17 17 17 13 10 11 11 10 10 11
9 14 6 3 10 5 10 14 3 1 2 7 5 6 11 7 2 1 4 2 5 3 2 6 6 6 7 9 11 11 14 15 14 16 16 19 18 17 16 14 12 12 10 9
10 4 16 12 14 10 14 11 7 8 7 4 1 8 7 9 2 2 7 7 2 4 3 2 4 3 7 9 8 9 9 14 14 15 17 17 18 12 12 13 12 10 11 12
14 4 14 20 15 16 15 13 3 7 2 4 6 7 8 8 8 5 6 4 6 7 2 1 1 3 3 5 8 8 8 9 9 13 13 14 14 16 14 16 12 10 11 10
12 10 11 5 7 3 13 10 5 1 7 6 5 6 8 4 8 10 7 8 6 6 6 3 2 2 1 3 4 7 8 9 8 8 9 12 15 14 15 12 13 12 10 8
19 7 6 7 7 16 7 11 5 6 4 6 1 7 7 12 11 10 8 8 8 6 3 1 3 2 2 2 4 5 6 7 8 8 7 7 11 13 12 13 12 12 8 10
4 8 9 7 4 6 4 9 6 6 5 2 4 8 6 5 7 11 9 8 6 2 1 2 4 4 4 6 6 7 7 8 8 7 6 7 6 5 7 11 11 9 8 7
11 6 12 6 5 4 14 15 15 2 4 7 7 10 6 8 9 7 8 8 7 6 6 5 3 6 7 6 6 7 7 8 7 7 6 6 6 6 6 5 6 6 6 6
8 6 7 8 8 12 8 16 17 8 3 5 9 20 1 9 9 7 6 4 6 4 5 4 5 7 7 7 7 7 7 7 6 5 5 6 6 7 7 5 6 7 8 9
7 6 6 9 13 16 21 24 19 20 21 14 23 18 19 5 5 6 7 4 2 6 8 8 6 7 8 8 7 7 7 6 6 6 6 7 5 4 2 4 4 4 8 10
10 5 8 5 8 8 14 16 21 24 28 19 14 21 11 9 7 5 6 8 9 9 9 10 9 8 8 7 7 7 7 7 7 6 6 5 5 4 4 2 1 2 1 2
10 7 6 4 8 8 2 24 21 22 23 27 20 36 5 5 5 6 8 9 9 8 10 10 9 8 7 8 7 8 7 6 7 7 6 7 5 4 4 5 5 3 4 4
13 9 4 5 4 3 13 17 23 26 24 25 25 23 8 13 9 12 11 7 7 8 8 8 5 4 5 4 5 4 5 7 7 7 7 6 6 5 4 5 5 4 4 5
10 7 5 10 11 5 8 7 22 15 17 22 27 24 17 12 6 12 5 7 8 7 2 1 3 4 6 7 5 5 5 6 7 8 7 7 7 6 6 5 6 4 4 3
5 5 7 5 8 14 3 13 10 7 16 16 23 24 22 7 12 5 7 5 5 4 3 5 6 4 6 7 5 2 4 5 5 6 6 6 6 7 8 6 5 2 3 4
12 7 7 4 4 8 6 8 12 13 9 12 18 17 15 12 12 7 8 6 5 3 5 6 7 5 6 7 5 3 3 6 6 4 5 6 5 6 7 6 4 5 4 5
13 16 10 3 3 12 9 7 16 8 1 3 4 7 7 6 7 7 8 8 6 6 4 5 4 4 4 5 5 4 4 5 3 2 3 3 3 2 4 7 7 7 7 8
5 10 11 13 8 2 16 13 5 7 6 5 7 4 6 7 6 8 7 7 5 5 4 2 3 3 5 5 4 4 6 4 2 5 3 3 4 3 4 4 5 5 7 6
3 5 5 6 6 7 8 1 3 3 6 6 6 7 7 7 9 7 6 5 5 4 3 1 4 5 6 5 5 3 3 2 3 3 3 3 3 3 3 1 4 6 5 5
7 9 8 2 2 6 1 8 8 6 7 6 4 6 9 10 8 8 7 5 5 5 3 4 4 4 4 3 5 5 4 3 4 4 3 3 3 2 2 2 2 2 2 5
6 10 12 6 12 8 12 10 7 11 10 9 10 5 3 6 8 8 6 5 4 5 3 5 4 6 6 6 7 7 6 4 3 3 2 2 3 2 3 4 4 10 4 7
Wind_Direction
192 163 202 187 201 225 170 172 216 231 131 156 234 240 241 224 195 202 218 258 261 226 185 185 189 185 189 186 183 191 184 187 186 176 185 195 193 194 201 212 194 183 180 185
128 212 197 199 216 211 230 177 195 108 95 132 271 276 266 250 233 194 197 214 228 235 213 189 182 182 196 195 190 195 189 186 189 192 191 196 196 199 201 205 195 187 181 183
172 178 206 213 200 216 213 188 216 145 112 332 302 281 238 229 232 231 220 210 214 219 221 196 182 188 189 200 200 199 196 187 191 191 189 194 195 185 194 201 200 199 190 185
184 207 187 209 208 190 199 193 73 109 105 208 147 283 318 304 231 219 227 225 221 219 231 220 193 184 193 205 201 207 206 195 195 188 191 200 199 202 202 201 194 195 193 186
181 201 179 203 202 180 204 152 105 87 330 321 234 269 266 222 248 237 204 204 214 215 214 224 221 197 195 189 197 202 206 208 200 193 197 198 204 207 197 197 190 191 199 202
141 178 208 199 183 169 121 102 79 61 71 256 213 213 230 225 222 217 208 204 207 206 216 217 216 195 197 190 190 194 200 211 210 205 201 201 207 205 201 203 197 197 194 198
132 173 116 210 150 86 137 138 97 156 187 225 56 210 229 283 270 111 333 160 148 235 254 214 230 212 198 187 191 195 200 211 207 209 206 207 211 209 209 206 205 199 199 197
144 181 162 188 188 170 184 160 146 187 186 210 53 239 251 218 316 163 205 228 243 336 169 254 266 288 216 196 192 195 202 215 212 208 214 214 213 214 215 215 213 206 205 206
158 120 173 171 168 151 192 207 96 98 359 61 193 254 292 247 256 225 240 263 238 225 172 152 106 234 271 205 211 205 213 221 219 216 216 220 217 215 218 218 218 217 207 202
152 112 175 135 104 10 189 150 124 172 161 232 242 232 224 109 218 241 237 229 256 174 121 99 67 57 266 226 211 214 214 228 240 238 225 217 217 215 216 217 219 222 216 192
136 106 141 143 195 178 155 181 197 127 195 168 117 256 198 213 200 200 167 123 89 108 115 273 137 147 213 241 250 244 250 240 238 230 235 237 222 222 217 215 213 211 198 191
105 113 143 171 136 200 207 170 184 172 204 241 105 262 143 92 99 105 116 125 128 183 256 162 197 211 243 236 231 231 234 237 234 235 234 236 249 239 226 223 221 219 208 166
164 130 122 129 344 165 209 187 197 130 87 189 146 258 226 175 119 134 126 132 159 174 218 228 237 228 236 240 241 238 235 234 225 211 219 228 230 223 222 252 198 168 153 162
94 133 144 164 135 123 169 190 197 202 132 174 219 247 220 127 155 165 171 173 205 221 242 234 244 239 237 231 231 237 245 235 230 221 231 228 236 236 216 203 193 172 168 165
116 126 111 133 146 159 175 180 183 200 220 206 234 237 222 215 204 200 167 171 235 270 280 278 265 242 239 239 234 232 237 220 201 206 218 233 238 246 223 203 227 203 189 187
169 131 108 47 134 136 174 187 194 203 214 220 237 262 115 212 201 202 228 218 218 229 236 254 259 262 245 238 232 230 226 216 184 204 217 217 196 188 166 178 223 155 178 152
147 120 114 149 124 103 20 203 192 212 216 214 216 239 238 240 231 237 239 236 228 224 229 242 249 257 245 234 217 220 214 197 188 191 199 185 193 223 200 166 166 204 187 147
137 114 84 135 116 150 241 175 203 207 215 217 237 248 204 238 232 229 234 241 247 247 254 256 266 286 275 233 223 220 191 186 182 201 192 190 183 197 185 173 181 171 163 179
141 116 109 144 196 274 242 186 191 183 229 216 228 242 245 238 262 260 229 217 233 262 270 13 340 316 313 307 259 192 195 179 186 202 199 192 180 168 175 185 180 169 149 176
152 102 114 145 149 219 194 171 150 127 256 200 217 229 232 203 237 221 172 136 124 68 35 10 343 342 345 340 343 211 223 218 233 224 208 182 179 177 178 179 167 161 136 144
164 170 184 181 195 263 195 158 141 168 243 205 204 217 225 215 227 160 141 120 104 93 28 11 7 4 353 345 347 313 279 256 263 223 185 178 173 182 165 157 133 123 103 101
169 164 188 118 137 247 182 133 166 199 162 161 139 170 186 214 147 151 148 134 119 103 61 30 18 17 15 4 5 337 312 303 293 145 114 123 133 137 161 157 135 130 137 130
140 192 169 191 198 245 184 176 158 151 143 164 135 138 180 154 146 149 142 134 111 94 95 58 54 50 40 31 49 37 327 334 92 98 102 102 92 124 141 140 139 133 144 150
315 142 158 91 237 159 199 20 94 174 153 146 157 163 156 148 134 120 116 124 114 98 96 52 67 49 34 10 40 39 339 40 58 75 97 95 123 134 118 66 147 145 158 166
187 141 157 193 17 83 99 204 205 148 125 132 131 165 165 145 158 140 137 145 124 101 44 49 60 59 39 10 41 24 11 55 85 101 111 115 114 117 97 71 135 130 163 176
188 169 185 211 176 161 204 200 169 157 180 173 151 141 118 163 152 108 104 90 99 88 66 67 55 57 23 23 27 19 15 45 92 88 104 134 122 118 121 114 64 39 121 150